Location: Rounton
(54.4000°N, 1.3500°W)
Time: 03:05:58
(UTC+00:00)

Envisat - Pass Details

Date: 25 October 2021
Orbit: 764 x 766 km, 98.2° (Epoch: 28 November)

Event Time Altitude Azimuth Distance (km) Brightness Sun altitude
Rises 04:39:04 0° 27° (NNE) 3,246 6.9 -28.5°
Reaches altitude 10° 04:42:43 10° 55° (NE) 2,313 6.4 -28.0°
Maximum altitude 04:45:08 13° 83° (E) 2,085 6.1 -27.7°
Drops below altitude 10° 04:47:32 10° 112° (ESE) 2,304 6.1 -27.4°
Sets 04:51:09 0° 139° (SE) 3,223 6.5 -26.9°
